Regional Weather Roundup
Issued by NWS

Home | Current Version | Previous Version | Text Only | Print | Product List | Glossary Off
Versions: 1 2 3 4 5 6 7 8 9 10 11 12 13 14 15 16 17 18 19 20 21 22 23 24 25 26 27 28 29 30 31 32 33 34 35 36 37 38 39 40 41 42 43 44 45 46 47 48 49 50

000
ASUS43 KDTX 150101
RWRMI
MICHIGAN HOURLY REGIONAL WEATHER ROUNDUP
NATIONAL WEATHER SERVICE DETROIT/PONTIAC MI
800 PM EST THU DEC 14 2017

NOTE: "FAIR" INDICATES FEW OR NO CLOUDS BELOW 12,000 FEET WITH NO
SIGNIFICANT WEATHER AND/OR OBSTRUCTION TO VISIBILITY.

MIZ047>049-052>055-059>063-066>070-074>076-081>083-150200-
SOUTHEAST LOWER MICHIGAN

CITY           SKY/WX    TMP DP  RH WIND       PRES   REMARKS
ADRIAN         CLOUDY    12   4  70 SW5       30.08S WCI   4
ALMA           LGT SNOW  18  15  87 S3        30.03S
ANN ARBOR      CLOUDY    -1  -4  87 CALM      30.06S
BAD AXE        CLOUDY     2  -1  85 SW3       30.03R
CARO           PTCLDY     8   4  85 S3        30.03S
DETROIT CITY   CLEAR      9   5  84 CALM      30.08R
DETROIT        PTCLDY    18   6  59 W7        30.08S WCI   9
FLINT          CLOUDY    14   6  70 S7        30.05R WCI   4
GROSSE ILE     CLOUDY    16   8  70 W6        30.08R WCI   7
HILLSDALE      CLOUDY    19   9  63 S7        30.02F WCI  10
HOWELL         CLOUDY    16   9  73 SW3       30.03F

CITY           SKY/WX    TMP DP  RH WIND       PRES   REMARKS
JACKSON        CLOUDY    19   8  62 S6        30.03F WCI  11
LAMBERTVILLE   CLOUDY    11   5  75 SW3       30.09S
LANSING        CLOUDY    20  13  74 SW10      30.04S WCI   9
LAPEER         CLOUDY     4   1  88 CALM      30.04R
MASON          CLOUDY    19   9  63 CALM      30.04S
MT. CLEMENS    PTCLDY     3   1  91 SW3       30.05R
PONTIAC        FLURRIES  11   7  84 CALM      30.03R
PORT HOPE        N/A     13   5  70 SW7       30.00R WCI   3
PORT HURON     CLOUDY    -2  -6  84 CALM      30.07R
TRI CITIES     CLOUDY    14   9  80 S6        30.04R WCI   5
MIDLAND        CLOUDY    17  10  74 SW5       30.03R WCI  10
TROY           MOCLDY    17   9  70 SW3       30.07S
SAGINAW HB     CLOUDY    16  10  79 SW8       30.04R WCI   5
$$
MIZ043>046-050>051-056>058-064>065-071>073-077>080-150200-
SOUTHWEST LOWER MICHIGAN

CITY           SKY/WX    TMP DP  RH WIND       PRES   REMARKS
BATTLE CREEK   FLURRIES  20  12  71 SW9       30.04S WCI   9
BENTON HARBOR  PTCLDY    21  15  78 CALM      30.06S
BIG RAPIDS     CLOUDY    17  10  75 CALM      30.00S
COLDWATER      CLOUDY    19   9  66 S3        30.04F
HOLLAND        CLOUDY    21  17  84 S6        30.05R WCI  13
GRAND RAPIDS   FLURRIES  21  17  84 SW10      30.03S WCI  10
IONIA          LGT SNOW  20  17  87 S7        30.02S WCI  11
KALAMAZOO      LGT SNOW  21  13  71 SW9       30.05S WCI  11
LUDINGTON      CLOUDY    24  13  63 NW5       30.01S WCI  18
MARSHALL       CLOUDY    19  10  68 SW3       30.04S
MOUNT PLEASANT CLOUDY    21  14  75 SW6       30.01S WCI  13
MUSKEGON       CLOUDY    24  12  60 NW6       30.04S WCI  17
SOUTH HAVEN    CLOUDY    23  18  81 S3        30.05S
$$
MIZ016>042-150200-
NORTHERN LOWER MICHIGAN

CITY           SKY/WX    TMP DP  RH WIND       PRES   REMARKS
ALPENA         CLOUDY    19  13  77 CALM      29.96S
BEAVER ISLAND  CLOUDY    23  10  57 W7        29.95S WCI  14
BELLAIRE       FLURRIES  23  17  78 SW5       29.97S WCI  16
CADILLAC       CLOUDY    16  11  80 SW5       29.94S WCI   9
CHARLEVOIX     FLURRIES  24  14  65 W10G16    29.98S WCI  14
FRANKFORT      CLOUDY    25  14  63 W3        29.98F
GAYLORD        CLOUDY    17  11  77 SW8       29.91S WCI   7
GRAYLING       CLOUDY    18  10  71 W5        29.95S WCI  11
HARBOR SPRINGS FLURRIES  23  12  63 W9        29.94R WCI  13
HOUGHTON LAKE  CLOUDY    17   9  70 W6        29.96R WCI   9
MANISTEE       CLOUDY    23  14  68 W9        30.00S WCI  13
OSCODA         CLOUDY    17  10  76 SW8       29.99S WCI   6
PELLSTON       FLURRIES  22  12  65 NW12      29.94S WCI  10
ROGERS CITY    CLOUDY    19  15  84 S5        29.96S WCI  12
TRAVERSE CITY  FLURRIES  20  14  77 S5        29.98S WCI  13
$$
MIZ007>008-015-150200-
EASTERN UPPER MICHIGAN

CITY           SKY/WX    TMP DP  RH WIND       PRES   REMARKS
KINROSS        FLURRIES  18  13  80 W9        29.90F WCI   7
MACKINAC ISLAN CLOUDY    23   9  56 W13G21    29.92S WCI  11
NEWBERRY       CLOUDY    17  11  76 SW8       29.91S WCI   7
S. S. MARIE    LGT SNOW  12   8  84 NE5       29.90S FOG     WCI   4
MUNISING         N/A     19  11  70 SW6       29.92F WCI  11
$$
MIZ004>006-011>014-085-150200-
CENTRAL UPPER MICHIGAN

CITY           SKY/WX    TMP DP  RH WIND       PRES   REMARKS
MANISTIQUE     CLOUDY    13   6  74 CALM      29.95S
ESCANABA       CLOUDY    18  12  77 W8        29.96F WCI   8
MENOMINEE      CLOUDY    20  13  74 SW3       29.99F
SAWYER-GWINN   CLOUDY    16  12  86 SW5       29.90S WCI   9
$$
MIZ001>003-009>011-084-150200-
WESTERN UPPER MICHIGAN

CITY           SKY/WX    TMP DP  RH WIND       PRES   REMARKS
IRON MOUNTAIN  CLOUDY    17  10  74 CALM      29.90F
HOUGHTON       LGT SNOW  19  13  77 SW5       29.85F WCI  12
COPPER HARBOR    N/A     19  12  74 SW7       29.89F WCI  10
IRONWOOD       FLURRIES  16  13  88 SW8       29.90F WCI   5
$$

ABBREVIATIONS USED IN REMARKS
   TC - TEMPERATURE IN CELSIUS
  WCI - WIND CHILL INDEX
   HX - HEAT INDEX
  VSB - VISIBILITY





USA.gov is the U.S. government's official web portal to all federal, state and local government web resources and services.